Nebraska City, NE

9:49 AM CDT on August 17, 2017 (GMT -0500)
Nebraska City Municipal

Weather History for KAFK - November, 2012

Change the Weather History Date:

Sunday, November 25, 2012

  Actual Average (KSDA) Record (KSDA)
Temperature  
Mean Temperature 38 °F -  
Max Temperature 45 °F 46 °F 71 °F (1960)
Min Temperature 30 °F 25 °F 7 °F (1980)
Degree Days  
Heating Degree Days 28    
Moisture  
Dew Point 26 °F    
Average Humidity 64    
Maximum Humidity 84    
Minimum Humidity 50    
Precipitation  
Precipitation 0.00 in - - ()
Sea Level Pressure  
Sea Level Pressure 29.98 in    
Wind  
Wind Speed 5 mph (North)    
Max Wind Speed 13 mph    
Max Gust Speed -    
Visibility 10 miles    
Events      
Averages and records for this station are not official NWS values.
T = Trace of Precipitation, MM = Missing Value Source: NWS Daily Summary

Daily Weather History Graph

Daily Weather History Graph

Search for Another Location

Airport or City:

Trip Planner

Search our weather history database for the weather conditions in past years. The results will help you decide how hot, cold, wet, or windy it might be!

Date:

Astronomy

Nov. 25, 2012 Rise Set
Actual Time 7:22 AM CST 4:59 PM CST
Civil Twilight 6:52 AM CST 5:29 PM CST
Nautical Twilight 6:18 AM CST 6:02 PM CST
Astronomical Twilight 5:45 AM CST 6:35 PM CST
Moon 3:17 PM CST (11/25) 4:36 AM CST (11/25)
Length of Visible Light 10h 37m
Length of Day
9h 37m
Waxing Gibbous, 93% of the Moon is Illuminated
Nov 25
Waxing Gibbous
Nov 28
Full
Dec 6
Last Quarter
Dec 13
New
Dec 19
First Quarter

Hourly Weather History & Observations

Time (CST) Temp. Windchill Dew Point Humidity Pressure Visibility Wind Dir Wind Speed Gust Speed Precip Events Conditions
12:15 AM 36.7 °F - 23.7 °F 59% 29.87 in 10.0 mi Calm Calm - N/A   Clear
12:35 AM 37.0 °F - 24.1 °F 59% 29.87 in 10.0 mi Calm Calm - N/A   Clear
12:55 AM 36.7 °F - 24.1 °F 60% 29.87 in 10.0 mi Calm Calm - N/A   Clear
1:15 AM 36.9 °F - 24.4 °F 61% 29.86 in 10.0 mi Calm Calm - N/A   Clear
1:35 AM 37.4 °F - 24.8 °F 60% 29.87 in 10.0 mi Calm Calm - N/A   Clear
1:55 AM 37.6 °F - 25.3 °F 61% 29.86 in 10.0 mi Calm Calm - N/A   Clear
2:15 AM 38.3 °F - 25.5 °F 60% 29.86 in 10.0 mi Calm Calm - N/A   Clear
2:35 AM 38.3 °F - 25.7 °F 61% 29.87 in 10.0 mi Calm Calm - N/A   Clear
2:55 AM 39.0 °F - 26.2 °F 60% 29.87 in 10.0 mi Calm Calm - N/A   Clear
3:15 AM 38.7 °F 34.3 °F 25.7 °F 60% 29.88 in 10.0 mi WNW 5.8 mph - N/A   Clear
3:35 AM 38.3 °F 31.9 °F 26.1 °F 61% 29.89 in 10.0 mi NW 9.2 mph - N/A   Clear
3:55 AM 40.8 °F 34.1 °F 25.3 °F 54% 29.89 in 10.0 mi NNW 11.5 mph - N/A   Clear
4:15 AM 40.6 °F 34.8 °F 25.0 °F 54% 29.89 in 10.0 mi North 9.2 mph - N/A   Clear
4:35 AM 40.1 °F 36.1 °F 25.2 °F 55% 29.89 in 10.0 mi North 5.8 mph - N/A   Clear
4:55 AM 38.8 °F 33.2 °F 25.3 °F 58% 29.89 in 10.0 mi North 8.1 mph - N/A   Clear
5:15 AM 38.8 °F 32.6 °F 25.7 °F 59% 29.90 in 10.0 mi NNW 9.2 mph - N/A   Clear
5:35 AM 39.2 °F - 25.7 °F 58% 29.92 in 10.0 mi Calm Calm - N/A   Clear
5:55 AM 39.6 °F 33.5 °F 26.1 °F 58% 29.92 in 10.0 mi North 9.2 mph - N/A   Clear
6:15 AM 39.2 °F 33.0 °F 26.1 °F 59% 29.93 in 10.0 mi North 9.2 mph - N/A   Clear
6:35 AM 38.8 °F 32.1 °F 26.6 °F 61% 29.93 in 10.0 mi North 10.4 mph - N/A   Clear
6:55 AM 38.3 °F 32.5 °F 26.2 °F 62% 29.93 in 10.0 mi North 8.1 mph - N/A   Clear
7:15 AM 37.6 °F 31.0 °F 26.4 °F 64% 29.94 in 10.0 mi North 9.2 mph - N/A   Clear
7:35 AM 37.8 °F 31.3 °F 26.6 °F 64% 29.95 in 10.0 mi North 9.2 mph - N/A   Clear
7:55 AM 37.4 °F 31.4 °F 26.6 °F 65% 29.95 in 10.0 mi North 8.1 mph - N/A   Clear
8:15 AM 39.2 °F 33.6 °F 27.5 °F 63% 29.96 in 10.0 mi North 8.1 mph - N/A   Clear
8:35 AM 39.9 °F 33.4 °F 27.7 °F 62% 29.97 in 10.0 mi North 10.4 mph - N/A   Clear
8:55 AM 40.8 °F 34.1 °F 27.7 °F 60% 29.98 in 10.0 mi NNE 11.5 mph - N/A   Clear
9:15 AM 41.5 °F 36.4 °F 27.5 °F 57% 29.99 in 10.0 mi North 8.1 mph - N/A   Clear
9:55 AM 41.9 °F 36.3 °F 27.5 °F 57% 30.00 in 10.0 mi NNE 9.2 mph - N/A   Clear
10:15 AM 42.4 °F 36.1 °F 27.5 °F 56% 30.00 in 10.0 mi NNE 11.5 mph - N/A   Clear
10:35 AM 42.8 °F 36.6 °F 27.1 °F 54% 30.01 in 10.0 mi NNE 11.5 mph - N/A   Clear
10:55 AM 42.8 °F 37.0 °F 27.3 °F 54% 30.00 in 10.0 mi NNE 10.4 mph - N/A   Clear
11:15 AM 44.1 °F 39.5 °F 27.9 °F 53% 29.99 in 10.0 mi NNE 8.1 mph - N/A   Clear
11:35 AM 44.2 °F 39.7 °F 28.2 °F 53% 30.00 in 10.0 mi NNE 8.1 mph - N/A   Clear
11:55 AM 43.9 °F - 28.2 °F 54% 29.99 in 10.0 mi Calm Calm - N/A   Clear
12:15 PM 44.1 °F - 28.4 °F 54% 29.98 in 10.0 mi Calm Calm - N/A   Scattered Clouds
12:35 PM 44.1 °F 39.5 °F 28.2 °F 54% 29.97 in 10.0 mi NNE 8.1 mph - N/A   Scattered Clouds
12:55 PM 44.6 °F 40.7 °F 28.2 °F 53% 29.97 in 10.0 mi NNE 6.9 mph - N/A   Scattered Clouds
1:15 PM 44.2 °F 40.3 °F 28.2 °F 53% 29.98 in 10.0 mi NNE 6.9 mph - N/A   Scattered Clouds
1:35 PM 44.6 °F 39.7 °F 28.0 °F 52% 29.97 in 10.0 mi North 9.2 mph - N/A   Mostly Cloudy
1:55 PM 45.0 °F 40.1 °F 28.4 °F 52% 29.98 in 10.0 mi North 9.2 mph - N/A   Mostly Cloudy
2:15 PM 44.6 °F 38.4 °F 27.5 °F 51% 29.98 in 10.0 mi NNE 12.7 mph - N/A   Mostly Cloudy
2:35 PM 44.6 °F 38.8 °F 28.0 °F 52% 29.98 in 10.0 mi North 11.5 mph - N/A   Mostly Cloudy
2:55 PM 44.6 °F 39.2 °F 27.5 °F 51% 29.98 in 10.0 mi North 10.4 mph - N/A   Scattered Clouds
3:15 PM 45.9 °F 40.4 °F 28.2 °F 50% 29.98 in 10.0 mi North 11.5 mph - N/A   Scattered Clouds
3:35 PM 44.6 °F 39.2 °F 27.5 °F 51% 29.98 in 10.0 mi NNE 10.4 mph - N/A   Scattered Clouds
3:55 PM 43.0 °F 36.4 °F 27.5 °F 54% 29.98 in 10.0 mi NNE 12.7 mph - N/A   Clear
4:15 PM 42.1 °F 36.6 °F 27.5 °F 56% 29.98 in 10.0 mi NNE 9.2 mph - N/A   Clear
4:35 PM 40.5 °F 35.1 °F 27.3 °F 59% 29.99 in 10.0 mi NNE 8.1 mph - N/A   Clear
4:55 PM 38.8 °F 31.6 °F 27.0 °F 62% 30.00 in 10.0 mi NNE 11.5 mph - N/A   Clear
5:15 PM 37.4 °F 30.3 °F 27.1 °F 66% 30.00 in 10.0 mi NNE 10.4 mph - N/A   Clear
5:35 PM 36.0 °F 29.6 °F 26.6 °F 69% 30.01 in 10.0 mi NNE 8.1 mph - N/A   Clear
5:55 PM 34.3 °F 28.4 °F 26.4 °F 73% 30.02 in 10.0 mi NNE 6.9 mph - N/A   Clear
6:15 PM 33.4 °F 26.6 °F 26.2 °F 75% 30.01 in 10.0 mi NE 8.1 mph - N/A   Clear
6:35 PM 32.0 °F 24.2 °F 25.7 °F 78% 30.02 in 10.0 mi NNE 9.2 mph - N/A   Clear
6:55 PM 31.1 °F 23.7 °F 25.3 °F 79% 30.03 in 10.0 mi NNE 8.1 mph - N/A   Clear
7:15 PM 31.1 °F 25.4 °F 25.2 °F 79% 30.04 in 10.0 mi NNE 5.8 mph - N/A   Clear
7:35 PM 30.7 °F 22.6 °F 25.0 °F 79% 30.04 in 10.0 mi NNE 9.2 mph - N/A   Clear
7:55 PM 31.1 °F 23.7 °F 25.5 °F 80% 30.05 in 10.0 mi NNE 8.1 mph - N/A   Clear
8:15 PM 30.2 °F - 25.0 °F 81% 30.05 in 10.0 mi Calm Calm - N/A   Clear
8:35 PM 30.2 °F - 24.8 °F 80% 30.05 in 10.0 mi Calm Calm - N/A   Clear
8:55 PM 31.3 °F - 25.7 °F 80% 30.05 in 10.0 mi Calm Calm - N/A   Clear
9:15 PM 32.0 °F 24.8 °F 26.4 °F 80% 30.08 in 10.0 mi North 8.1 mph - N/A   Clear
9:35 PM 31.8 °F - 26.6 °F 81% 30.08 in 10.0 mi Calm Calm - N/A   Clear
9:55 PM 31.6 °F - 26.6 °F 82% 30.09 in 10.0 mi Calm Calm - N/A   Clear
10:15 PM 32.0 °F 25.6 °F 27.0 °F 82% 30.10 in 10.0 mi NNE 6.9 mph - N/A   Clear
10:35 PM 30.9 °F 22.8 °F 26.1 °F 82% 30.11 in 10.0 mi NNE 9.2 mph - N/A   Clear
10:55 PM 30.7 °F - 25.9 °F 82% 30.11 in 10.0 mi Calm Calm - N/A   Clear
11:15 PM 30.0 °F - 25.7 °F 84% 30.12 in 10.0 mi Calm Calm - N/A   Clear
11:35 PM 30.6 °F - 26.1 °F 83% 30.12 in 10.0 mi Calm Calm - N/A   Clear
11:55 PM 30.9 °F - 26.6 °F 84% 30.13 in 10.0 mi Calm Calm - N/A   Clear